Flag for Belarus Weather past 2 weeks in Minsk, Belarus

Now
63 °F

Partly sunny.


Feels Like: 63 °F
Forecast: 52 / 62 °F
Wind: 15 mph from West

Location: Loshitsa / Minsk International 1

Current Time: Aug 27, 2014 at 4:30:06 PM

Latest Report: Aug 27, 2014 at 4:00 PM


Visibility: N/A

Pressure: 29.68 "Hg

Humidity: 59%

Dew point: 48 °F

Location of MinskLocation

Historic Weather in Minsk — Graph

°F

Minsk temperature yesterday

Maximum temperature yesterday: 61 °F (at 1:00 PM)
Minimum temperature yesterday: 46 °F (at 7:00 AM)
Average temperature yesterday: 56 °F

Past Weeks' High & Low Weather Summary

 TemperatureHumidityPressure
High77 °F (Aug 14, 3:00 PM)100% (Aug 12, 6:30 PM)30.04 "Hg (Aug 12, 6:30 PM)
Low46 °F (Aug 26, 7:00 AM)40% (Aug 23, 6:00 PM)29.47 "Hg (Aug 25, 8:00 AM)
Average63 °F72%29.85 "Hg
* Reported Aug 12 3:00 PM — Aug 27 3:00 PM, Minsk, Weather by CustomWeather, © 2014

Note: Actual official high and low records may vary slightly from our data, if they occured in-between our weather recording intervals... More about our weather records

Advertising

Minsk weather history for previous 24 hours

 ConditionsComfort  
Time TempWeatherWind HumidityBarometerVisibility
3:00 PM
Aug 27
63 °FPartly sunny.15 mph49%29.68 "HgN/A
2:30 PM63 °FPartly sunny.10 mph52%29.68 "HgN/A
2:00 PM63 °FPartly sunny.10 mph52%29.68 "HgN/A
1:30 PM63 °FPartly sunny.10 mph64%29.68 "HgN/A
1:00 PM63 °FPartly sunny.10 mph64%29.68 "HgN/A
12:30 PM59 °FPartly sunny.10 mph72%29.68 "HgN/A
11:30 AM55 °FPartly sunny.3 mph82%29.71 "HgN/A
11:00 AM55 °FPartly sunny.6 mph82%29.71 "HgN/A
10:30 AM52 °FPartly sunny.6 mph88%29.71 "HgN/A
10:00 AM52 °FPartly sunny.6 mph88%29.71 "HgN/A
9:30 AM50 °FLow clouds.6 mph94%29.71 "HgN/A
9:00 AM50 °FLow clouds.8 mph94%29.68 "HgN/A
8:30 AM50 °FLow clouds.6 mph94%29.68 "HgN/A
8:00 AM50 °FLow clouds.6 mph94%29.68 "HgN/A
7:30 AM50 °FPartly sunny.3 mph94%29.68 "HgN/A
7:00 AM50 °FPassing clouds.6 mph94%29.68 "HgN/A
8:30 PM
Aug 26
55 °FMostly cloudy.3 mph88%29.74 "HgN/A
8:00 PM55 °FMostly cloudy.3 mph88%29.74 "HgN/A
7:30 PM57 °FMostly cloudy.6 mph77%29.74 "HgN/A
7:00 PM57 °FSprinkles. Mostly cloudy.8 mph77%29.74 "HgN/A
6:30 PM57 °FMostly cloudy.10 mph77%29.74 "HgN/A
6:00 PM57 °FMostly cloudy.8 mph77%29.74 "HgN/A
5:30 PM59 °FSprinkles. Mostly cloudy.13 mph72%29.74 "HgN/A
5:00 PM59 °FMostly cloudy.13 mph72%29.77 "HgN/A
4:30 PM57 °FMostly cloudy.10 mph77%29.77 "HgN/A
4:00 PM57 °FMostly cloudy.13 mph77%29.77 "HgN/A
Weather by CustomWeather, © 2014

See weather overviewHow to use our weather pages